184P/Lovas 2 (2000)

Japanese version
Home page
Updated on January 14, 2007

---------------------------------------------------------------------

* Profile

* Orbital Elements

Epoch 2000 Feb. 26.0 TT = JDT 2451600.5
T 2000 Mar. 10.83311 TT                                 Muraoka
q   1.4537841            (2000.0)            P               Q
n   0.14609693     Peri.   71.53753     +0.99603275     +0.08512184
a   3.5703325      Node   283.57313     -0.08834064     +0.91075733
e   0.5928155      Incl.    1.52930     -0.01070909     +0.40407345
P   6.75
>From 24 observations 1986 Dec. 2-1987 Mar. 3, mean residual 0".80.
dP = +/- 6.0 days

* Finding Charts

* Magnitudes Graph

        m1 = 11.0 + 5 log d + 15.0 log r

---------------------------------------------------------------------

The orbital elements are calculated by Kenji Muraoka.
The charts are made with StellaNavigator Ver.2.0 for Windows (AstroArts / ASCII).
The magnitudes graphs are made with Comet for Windows.

---------------------------------------------------------------------

Copyright(C) Seiichi Yoshida (comet@aerith.net). All rights reserved.